EW2804 Weather Reports


time (UTC)temp
C
wind
direction
speed
KPH
gust
KPH
rain 1hr
cm
rain 24hr
cm
rain mn
cm
humidity
%
barometer
mb
20260510075247 23 342 3.2 16.1 0.00 0.00 0.00 78 1010.5
20260510073108 23 111 0.0 0.0 0.00 0.00 0.00 76 1008.8
20260510070940 24 123 0.0 0.0 0.00 0.00 0.00 73 1008.4
20260510065954 24 123 0.0 4.8 0.00 0.00 0.00 72 1008.1
20260510065003 24 111 0.0 4.8 0.00 0.00 0.00 71 1008.2
20260510064009 24 105 1.6 4.8 0.00 0.00 0.00 70 1007.9
20260510063028 25 190 1.6 11.3 0.00 0.00 0.00 69 1007.7
20260510061958 25 173 4.8 22.5 0.00 0.00 0.00 68 1008.0
20260510055913 24 113 6.4 19.3 0.00 0.00 0.00 69 1010.4
20260510054850 24 42 6.4 19.3 0.00 0.00 0.00 69 1010.3
20260510053824 24 355 4.8 14.5 0.00 0.00 0.00 67 1009.8
20260510052830 24 51 0.0 6.4 0.00 0.00 0.00 68 1007.8
20260510051817 24 238 0.0 6.4 0.00 0.00 0.00 67 1007.0
20260510050825 24 119 0.0 0.0 0.00 0.00 0.00 66 1006.9
20260510044656 25 150 0.0 6.4 0.00 0.00 0.00 65 1006.8
20260510043641 25 64 1.6 9.7 0.00 0.00 0.00 65 1006.5
20260510042621 25 86 0.0 9.7 0.00 0.00 0.00 65 1006.3
20260510041625 25 119 0.0 6.4 0.00 0.00 0.00 65 1006.4
20260510040626 25 146 1.6 6.4 0.00 0.00 0.00 65 1006.6
20260510035636 25 157 0.0 4.8 0.00 0.00 0.00 65 1006.6
20260510034630 25 182 0.0 6.4 0.00 0.00 0.00 65 1006.9
20260510032440 24 136 0.0 3.2 0.00 0.00 0.00 66 1006.9
20260510031452 24 106 0.0 3.2 0.00 0.00 0.00 65 1006.8
20260510030417 25 105 0.0 0.0 0.00 0.00 0.00 64 1007.1
20260510025426 25 105 0.0 3.2 0.00 0.00 0.00 63 1007.1
20260510024432 25 103 0.0 0.0 0.00 0.00 0.00 62 1006.9
20260510023408 25 78 0.0 0.0 0.00 0.00 0.00 61 1007.1
20260510022352 25 78 0.0 1.6 0.00 0.00 0.00 60 1006.9
20260510021413 26 78 0.0 1.6 0.00 0.00 0.00 60 1006.8
20260510020413 26 74 0.0 3.2 0.00 0.00 0.00 59 1006.7
20260510015344 26 70 0.0 3.2 0.00 0.00 0.00 58 1006.6
20260510014345 27 95 0.0 4.8 0.00 0.00 0.00 58 1006.4
20260510012233 27 136 0.0 9.7 0.00 0.00 0.00 57 1006.2
20260510010103 28 144 1.6 4.8 0.00 0.00 0.00 57 1005.8
20260510005107 28 92 1.6 11.3 0.00 0.00 0.00 57 1005.8
20260510004032 28 157 3.2 11.3 0.00 0.00 0.00 57 1005.7
20260510003018 29 126 1.6 11.3 0.00 0.00 0.00 56 1005.8
20260509235734 31 169 1.6 8.0 0.00 0.00 0.00 50 1005.7
20260509233551 31 120 0.0 6.4 0.00 0.00 0.00 46 1005.9
20260509232556 31 153 1.6 8.0 0.00 0.00 0.00 44 1005.9
20260509231542 32 142 0.0 6.4 0.00 0.00 0.00 42 1006.0
20260509230544 31 146 1.6 3.2 0.00 0.00 0.00 42 1005.9
20260509225606 31 190 1.6 8.0 0.00 0.00 0.00 41 1006.0
20260509223456 31 27 1.6 9.7 0.00 0.00 0.00 42 1006.0
20260509222453 31 180 1.6 6.4 0.00 0.00 0.00 45 1006.0
20260509221435 32 101 1.6 6.4 0.00 0.00 0.00 42 1005.9
20260509220453 32 116 0.0 4.8 0.00 0.00 0.00 40 1005.9
20260509215421 32 147 0.0 9.7 0.00 0.00 0.00 41 1005.9
20260509214435 31 114 1.6 9.7 0.00 0.00 0.00 45 1006.1
20260509213426 31 220 3.2 8.0 0.00 0.00 0.00 40 1006.1
20260509210051 31 0 3.2 9.7 0.00 0.00 0.00 46 1006.6
20260509205040 31 338 3.2 11.3 0.00 0.00 0.00 42 1006.8
20260509202844 31 100 1.6 12.9 0.00 0.00 0.00 42 1007.1
20260509201834 31 81 1.6 12.9 0.00 0.00 0.00 46 1007.2
20260509200829 30 134 3.2 12.9 0.00 0.00 0.00 47 1007.2
20260509195837 30 107 1.6 11.3 0.00 0.00 0.00 46 1007.3
20260509194819 30 32 3.2 8.0 0.00 0.00 0.00 45 1007.5
20260509192626 30 40 1.6 12.9 0.00 0.00 0.00 51 1007.7
20260509185251 29 25 1.6 9.7 0.00 0.00 0.00 57 1008.0
20260509184301 29 122 1.6 9.7 0.00 0.00 0.00 56 1008.1
20260509183314 28 9 1.6 12.9 0.00 0.00 0.00 58 1008.1
20260509182322 28 49 4.8 12.9 0.00 0.00 0.00 57 1008.2
20260509181259 28 53 3.2 11.3 0.00 0.00 0.00 58 1008.3
20260509180239 28 126 1.6 11.3 0.00 0.00 0.00 58 1008.4
20260509174036 28 331 3.2 14.5 0.00 0.00 0.00 63 1008.6
20260509173030 28 0 1.6 8.0 0.00 0.00 0.00 60 1008.8
20260509172029 28 336 1.6 9.7 0.00 0.00 0.00 60 1008.8
20260509165826 27 54 3.2 9.7 0.00 0.00 0.00 61 1009.0
20260509164831 27 55 3.2 9.7 0.00 0.00 0.00 64 1009.0
20260509161550 27 40 1.6 9.7 0.00 0.00 0.00 63 1009.2
20260509160527 27 58 3.2 11.3 0.00 0.00 0.00 63 1009.1
20260509155458 26 5 3.2 11.3 0.00 0.00 0.00 63 1009.1
20260509152155 26 350 1.6 11.3 0.00 0.00 0.00 68 1009.1
20260509151130 26 325 3.2 12.9 0.00 0.00 0.00 67 1009.2
20260509150112 25 280 3.2 12.9 0.00 0.23 0.00 69 1009.2
20260509145111 25 44 3.2 11.3 0.00 0.23 0.00 68 1009.2
20260509142923 24 251 3.2 9.7 0.00 0.23 0.00 72 1009.1
20260509141933 23 5 3.2 8.0 0.00 0.23 0.00 74 1009.1
20260509140942 23 341 1.6 9.7 0.00 0.23 0.00 76 1009.2
20260509135942 23 355 3.2 9.7 0.00 0.23 0.00 78 1009.2
20260509134954 22 9 1.6 9.7 0.00 0.23 0.00 79 1009.2
20260509133921 22 313 1.6 9.7 0.00 0.23 0.00 81 1009.1
20260509132905 21 320 1.6 6.4 0.00 0.23 0.00 82 1009.1
20260509130725 21 323 0.0 0.0 0.00 0.23 0.00 85 1009.2
20260509124523 20 331 0.0 3.2 0.00 0.23 0.00 86 1009.2
20260509123544 20 351 0.0 11.3 0.00 0.23 0.00 86 1009.0
20260509122549 20 319 1.6 11.3 0.00 0.23 0.00 86 1009.0
20260509121529 20 321 0.0 4.8 0.00 0.23 0.00 86 1009.0
20260509120548 20 290 0.0 4.8 0.00 0.23 0.00 86 1008.9
20260509115532 20 265 0.0 8.0 0.00 0.23 0.00 86 1008.8
20260509114529 20 337 0.0 8.0 0.00 0.23 0.00 87 1008.7
20260509113543 20 355 0.0 4.8 0.00 0.23 0.00 87 1008.4
20260509112547 20 281 0.0 4.8 0.00 0.23 0.00 87 1008.4
20260509111552 20 325 0.0 3.2 0.00 0.23 0.00 87 1008.0
20260509104233 20 115 0.0 0.0 0.00 0.23 0.00 85 1007.5
20260509103158 20 120 0.0 0.0 0.00 0.25 0.00 85 1007.3
20260509102203 20 120 0.0 0.0 0.00 0.25 0.00 84 1007.0
20260509101220 21 120 0.0 0.0 0.00 0.30 0.00 84 1007.2
20260509100226 21 120 0.0 0.0 0.00 0.33 0.00 84 1007.2
20260509091843 21 28 0.0 3.2 0.00 0.33 0.00 82 1006.3
20260509085755 21 40 0.0 11.3 0.00 0.36 0.00 80 1006.4
20260509083654 21 24 1.6 6.4 0.00 0.36 0.00 80 1006.0
20260509082619 21 128 0.0 3.2 0.00 0.36 0.00 80 1005.2
20260509081556 21 114 1.6 14.5 0.00 0.36 0.00 80 1004.8
20260509080523 21 138 3.2 14.5 0.00 0.36 0.00 82 1004.9